Tracking 28052 objects as of 24-Sep-2023
HD Live streaming from Space Station
objects crossing your sky now

STARLINK-30114

Track STARLINK-30114 now!
10-day predictions
STARLINK-30114 is classified as:


NORAD ID: 56826
Int'l Code: 2023-079D
Perigee: 565.6 km
Apogee: 566.9 km
Inclination: 43.0 °
Period: 95.8 minutes
Semi major axis: 6937 km
RCS: Unknown
Launch date: June 4, 2023
Source: United States (US)
Launch site: AIR FORCE EASTERN TEST RANGE (AFETR)
Your satellite tracking list
Your tracking list is empty




NASA's NSSDC Master Catalog

Two Line Element Set (TLE):
1 56826U 23079D   23267.18816104 -.00002369  00000-0 -16039-3 0  9991
2 56826  43.0011 304.2383 0000955 272.1278  87.9455 15.02527096 17552
Source of the keplerian elements: AFSPC